Back to catalog

COSMOS 1275 DEB

AlivePO
NORAD 27735·DEBRIS·🇷🇺 Russia

Launched Jun 4, 1981 from Plesetsk Cosmodrome

Loading…

Next Passes (next 24 hours)

TLE

FreshSource: Space-Track

Epoch: Sep 14, 2026, 04:02 UTC

1 27735U 81053MQ  26257.16824558  .00001021  00000-0  85394-3 0  9998
2 27735  83.0491 148.9759 0096512 334.0662 178.4592 13.85338730637150

Track COSMOS 1275 DEB in real time with AllMySat

Download on the App Store